Regional Weather Roundup
Issued by NWS Newport/Morehead, NC

Home | Current Version | Previous Version | Text Only | Print | Product List | Glossary On
Versions: 1 2 3 4 5 6 7 8 9 10 11 12 13 14 15 16 17 18 19 20 21 22 23 24 25 26 27 28 29 30 31 32 33 34 35 36 37 38 39 40 41 42 43 44 45 46 47 48 49 50
000
ASUS42 KMHX 191324
RWRMHX
WEATHER ROUNDUP FOR EASTERN NORTH CAROLINA
NATIONAL WEATHER SERVICE NEWPORT/MOREHEAD CITY NC
800 AM EST THU JAN 19 2017

NOTE: "FAIR" INDICATES FEW OR NO CLOUDS BELOW 12,000 FEET
WITH NO SIGNIFICANT WEATHER AND/OR OBSTRUCTIONS TO VISIBILITY

NCZ015>017-031-032-045>047-102-103-191400-
NORTH COAST

CITY           SKY/WX    TMP DP  RH WIND       PRES   REMARKS
EDENTON        CLEAR     41  39  93 CALM      30.12R
ELIZABETH CITY CLOUDY    40  39  97 NW3       30.10R
KITTY HAWK     NOT AVBL
MANTEO         MOCLDY    44  44  99 N3        30.09R

$$

NCZ045>047-081-094-103-104-191400-
CENTRAL COAST

CITY           SKY/WX    TMP DP  RH WIND       PRES   REMARKS
FRISCO         PTCLDY    48  45  89 VRB3      30.08R FOG

$$

NCZ095-097-098-100-101-191400-
SOUTHERN COAST

CITY           SKY/WX    TMP DP  RH WIND       PRES   REMARKS
BEAUFORT       CLEAR     44  42  93 N6        30.10R
CEDAR ISLAND   NOT AVBL
JACKSONVILLE   CLOUDY    40  40 100 CALM      30.11R FOG
PINEY ISLAND   SUNNY    N/A N/A N/A N5        30.09S
WILMINGTON     CLEAR     41  40  96 NE8       30.10R


$$

NCZ011>013-027>030-043-044-078>080-089-090>093-098-191400-
COASTAL PLAIN

CITY           SKY/WX    TMP DP  RH WIND       PRES   REMARKS
AHOSKIE          N/A     35  34  96 CALM      30.12R
CLINTON          N/A     38  38 100 CALM      30.12R
ELIZABETHTOWN  CLEAR     41  38  90 CALM      30.11R
GOLDSBORO      CLOUDY    42  42  99 NE6       30.10R
GREENVILLE       N/A     37  37 100 CALM      30.13R FOG
HAVELOCK       CLEAR     40  40 100 CALM      30.11R
KENANSVILLE    CLOUDY    34  34 100 CALM      30.11R FOG
KINSTON        CLOUDY    37  37 100 CALM      30.13R
NEW BERN       PTCLDY    38  38 100 CALM      30.12R FOG
RICHLANDS      PTCLDY    38  37  97 CALM      30.11R
ROCKY MOUNT    CLEAR     36  36 100 CALM      30.12R
WASHINGTON       N/A     39  38  97 N5          N/A
WHITEVILLE     CLEAR     40  39  97 CALM      30.09R

$$

AMZ130-135-150-152-154-156-158-170-250-252-270-ANZ085-086-088-633-658-670-191400-
MARINE OBSERVATIONS

STATION/POSITION TIME  TEMP    WIND        PRES    WAVE   SWELL
                       AIR SEA DIR/SP/G            HT/PER HT/PER
                 (UTC) (F)     (DEG/KT/KT) (MB)    (FT/S) (FT/S)
CHESAPEAKE LIGHT NOT AVBL
64 E VA BEACH    1250   50 55   20/ 16/ 19 1017.6    6/ 7   3/ 7
DUCK             1300   44 45  330/  8/  9 1018.3
2 E DUCK         1300      45                N/A     4/ 7
OREGON INLET     1300   45 49  330/  5/  7 1018.7
13E OREGON INLT  NOT AVBL
HATTERAS CG      1300   47 55  340/ 11/ 13 1018.3
DIAMOND BUOY     1250   53 75   10/ 17/ 21 1017.5    6/10   5/10
CAPE LOOKOUT     1300   47     360/  9/ 10 1018.5
BEAUFORT LAB     1300   46 50  350/  5/  7 1018.4
30 SE NEW RVR IN 1308   55 62   30/ 12/ 17 1019.1
30 SE NEW RVR IN 1313      62                N/A     4/ 7
27 SE WRIGHTSVLE 1308   56 68   50/ 14/ 19 1018.4
5 SE WRIGHTSVLE  1308   50      30/ 14/ 21 1018.8
225 S CAPE HAT   1250   67 71  360/ 10/ 16 1016.6    8/ 8   8/ 8
41 SE CHARLESTON 1250   69 70   80/ 10/ 12 1015.9    2/ 5   2/ 5

$$



USA.gov is the U.S. government's official web portal to all federal, state and local government web resources and services.